Regional Weather Roundup
Issued by NWS

Home | Current Version | Previous Version | Graphics & Text | Print | Product List | Glossary On
Versions: 1 2 3 4 5 6 7 8 9 10 11 12 13 14 15 16 17 18 19 20 21 22 23 24 25 26 27 28 29 30 31 32 33 34 35 36 37 38 39 40 41 42 43 44 45 46 47 48 49 50
000
ASUS43 KLOT 240008
RWRIL

ILLINOIS REGIONAL WEATHER ROUNDUP
NATIONAL WEATHER SERVICE CHICAGO/ROMEOVILLE IL
600 PM CST THU NOV 23 2017

NOTE: "FAIR" INDICATES FEW OR NO CLOUDS BELOW 12,000 FEET WITH NO
SIGNIFICANT WEATHER AND/OR OBSTRUCTIONS TO VISIBILITY.

* THESE STATIONS ARE NOT UNDER NWS QUALITY CONTROL. THEY ALSO MAY NOT
  REPORT WEATHER SUCH AS PRECIPITATION OR FOG.

ILZ001-002-007-009-015-016-024-240100-
NORTHWEST ILLINOIS

CITY           SKY/WX    TMP DP  RH WIND       PRES   REMARKS
MOLINE         CLEAR     33  25  72 CALM      29.92F
6HR MIN TEMP:  33; 6HR MAX TEMP:  50;

SAVANNA*       CLEAR     34  28  80 S7        29.91S WCI  27
$$

ILZ003-004-008-010-011-017-018-240100-
NORTH CENTRAL ILLINOIS

CITY           SKY/WX    TMP DP  RH WIND       PRES   REMARKS
ROCKFORD       PTCLDY    39  25  57 S5        29.93F
6HR MIN TEMP:  39; 6HR MAX TEMP:  47;

FREEPORT*      CLEAR     34  25  69 SW5       29.93S WCI  30
ROCHELLE*      CLEAR     33  27  77 S5        29.93F WCI  29
DE KALB*       CLEAR     37  28  67 W6        29.94S WCI  33
PERU*          CLEAR     40  25  56 SW5       29.95R
$$

ILZ005-006-012>014-019>023-240100-
NORTHEAST ILLINOIS

CITY           SKY/WX    TMP DP  RH WIND       PRES   REMARKS
CHICAGO-OHARE  CLEAR     40  25  55 SW3       29.94R
6HR MIN TEMP:  40; 6HR MAX TEMP:  46;

CHICAGO-MIDWAY CLEAR     42  27  55 W3        29.95R
6HR MIN TEMP:  40; 6HR MAX TEMP:  48;

AURORA         CLEAR     33  26  75 CALM      29.94R
6HR MIN TEMP:  33; 6HR MAX TEMP:  45;

LANSING*       CLEAR     35  29  79 SW6       29.95R WCI  30
JOLIET*        CLEAR     35  28  75 CALM      29.95S
WAUKEGAN       CLEAR     33  25  72 CALM      29.92R
6HR MIN TEMP:  33; 6HR MAX TEMP:  45;

DUPAGE AIRPORT CLEAR     34  27  75 S3        29.93R
6HR MIN TEMP:  34; 6HR MAX TEMP:  45;

KANKAKEE*      CLEAR     39  28  65 SW5       29.97R
WHEELING       CLEAR     39  26  59 S3        29.95R
6HR MIN TEMP:  38; 6HR MAX TEMP:  46;

MORRIS*        CLEAR     38  27  62 W3        29.95R
ROMEOVILLE*    CLEAR     39  27  61 W5        29.95R
NORTHERLY ISL    N/A     44  25  47 W7          N/A
$$

LMZ740>746-240100-
SOUTHERN LAKE MICHIGAN

STATION/POSITION SKY/WX   TEMP    WIND        PRES    VSBY  WAVE
                          AIR SEA DIR/SP/G                  HT/PER
                          (F)     (DEG/KT/KT) (MB)    (MI)  (FT/S)
SOUTHERN BUOY              43 47  260/  8/ 12 1013.9          2/ 5
HARRISON CRIB              45     250/  9/ 11   N/A
BURNHAM HARBOR             44     270/  5/  7   N/A
CALUMET HARBOR             44     200/  4/  5 1013.2R
BURNS HARBOR               44     210/  5/  8 1014.9R
MICHIGAN CITY              43     170/  7/  8   N/A
$$

ILZ025>027-034>036-040-047-049-050-058-095>099-240100-
WEST-CENTRAL ILLINOIS

CITY           SKY/WX    TMP DP  RH WIND       PRES   REMARKS
QUINCY         CLEAR     46  29  51 CALM      29.94S
GALESBURG*     CLEAR     35  29  79 CALM      29.95S
MACOMB*        CLEAR     40  29  65 CALM      29.97R
JACKSONVILLE*  CLEAR     42  29  58 CALM      29.96S
PITTSFIELD*    CLEAR     44  30  57 CALM      29.96S
$$

ILZ028>032-037-038-041>044-048-051>054-059>061-240100-
CENTRAL ILLINOIS

CITY           SKY/WX    TMP DP  RH WIND       PRES   REMARKS
PONTIAC        CLEAR     38  29  69 W3        29.97R
BLOOMINGTON    CLEAR     41  27  57 W7        29.97R
DECATUR        CLEAR     43  28  55 S3        29.98R
PEORIA         CLEAR     40  26  57 CALM      29.96R
6HR MIN TEMP:  40; 6HR MAX TEMP:  50;

LACON*         CLEAR     34  26  75 CALM      29.95S
LINCOLN*       CLEAR     41  30  65 CALM      29.97R
SPRINGFIELD    CLEAR     41  28  60 NW3       29.98R
6HR MIN TEMP:  40; 6HR MAX TEMP:  53;

TAYLORVILLE    CLEAR     43  28  54 CALM      29.97R
6HR MIN TEMP:  41; 6HR MAX TEMP:  51;

$$

ILZ033-039-045-046-055>057-062-063-240100-
EAST-CENTRAL ILLINOIS

CITY           SKY/WX    TMP DP  RH WIND       PRES   REMARKS
CHAMPAIGN      CLEAR     37  28  70 S8        29.98R WCI  31
DANVILLE*      CLEAR     38  26  60 S5        29.96R WCI  35
RANTOUL*       CLEAR     39  32  75 SW5       29.97R
MATTOON        CLEAR     41  27  57 S5        29.97R
PARIS*         CLEAR     34  28  80 SE6       30.00R WCI  29
$$

ILZ079-100>102-240100-
SOUTHWEST ILLINOIS

CITY           SKY/WX    TMP DP  RH WIND       PRES   REMARKS
ALTON          CLEAR     41  30  65 CALM      29.97R
BELLEVILLE     CLEAR     46  26  47 SE6       29.96R
CAHOKIA*       CLEAR     45  27  49 CALM      29.96R
SPARTA*        CLEAR     44  28  52 SE5       29.99R
$$

ILZ064>066-069>071-074>076-080>082-084>086-088>090-092>094-240100-
SOUTH-CENTRAL ILLINOIS

CITY           SKY/WX    TMP DP  RH WIND       PRES   REMARKS
CARBONDALE     CLEAR     42  27  55 MISG      30.00R
6HR MIN TEMP:  41; 6HR MAX TEMP:  52;

CAIRO*         CLEAR     45  28  53 SW5       30.03R
EFFINGHAM*     CLEAR     44  26  48 SE5       29.99S
MARION         CLEAR     43  27  52 S12       30.02R
MT. VERNON     CLEAR     38  26  62 CALM      29.99S
CENTRALIA*     CLEAR     42  28  57 S6        29.98S
SALEM*         CLEAR     46  24  42 S3        29.98S
METROPOLIS*    CLEAR     45  24  43 SW5       30.03R
$$

ILZ067-068-072-073-078-083-087-091-240100-
SOUTHEAST ILLINOIS

CITY           SKY/WX    TMP DP  RH WIND       PRES   REMARKS
LAWRENCEVILLE  CLEAR     39  27  62 S6        30.01R WCI  35
FLORA*         CLEAR     38  28  66 S6        29.99S WCI  33
FAIRFIELD*     CLEAR     43  24  47 CALM      30.00R
HARRISBURG*    CLEAR     42  26  51 SW3       30.02R
ROBINSON*      CLEAR     35  26  67 S5        30.02R WCI  31
CARMI*         CLEAR     38  28  68 S8        30.00S WCI  32
$$

ABBREVIATIONS USED IN REMARKS
   TC - TEMPERATURE IN CELSIUS
  WCI - WIND CHILL INDEX
   HX - HEAT INDEX
  VSB - VISIBILITY
$$





USA.gov is the U.S. government's official web portal to all federal, state and local government web resources and services.